Lid_Strength_Index
5 5 6 6 6 10 10 10 12 12 13 13 13 13 14 14 14 14 14 14 14 14 14 14 14 13 13 13 13 13 13 13 15 13 13 14 15 13 13 12 11 11 10
9 7 8 9 10 12 12 13 13 13 13 13 13 13 14 14 14 14 14 14 14 15 15 15 14 14 14 13 14 14 14 14 15 16 14 14 15 13 14 14 13 12 11
10 10 10 10 11 12 12 12 12 13 13 13 13 14 14 14 14 14 14 15 15 15 15 15 15 15 15 14 14 15 14 15 15 16 16 15 14 14 14 14 14 13 12
10 10 10 10 10 11 12 13 13 13 13 13 13 14 14 14 14 15 15 15 15 15 15 15 15 15 15 15 15 15 15 15 15 16 16 16 15 14 15 16 15 13 13
11 11 11 11 11 11 12 13 13 13 13 14 14 14 14 15 15 15 15 15 15 15 15 15 15 15 15 15 15 15 15 16 16 16 16 16 16 16 16 15 16 15 13
13 14 12 12 12 12 13 13 14 14 14 14 14 14 15 14 14 14 15 15 15 15 16 15 15 15 15 15 14 14 14 15 16 16 16 16 16 16 15 16 17 16 15
13 14 14 14 14 14 13 13 14 15 14 14 14 14 14 14 14 13 14 14 15 15 15 15 15 15 15 15 14 14 13 14 14 15 16 16 16 15 16 17 17 16 15
14 14 14 15 15 15 14 14 14 14 14 14 15 15 14 14 13 13 14 14 15 15 14 14 15 15 14 15 15 15 15 14 14 14 14 14 14 14 15 15 15 15 14
14 15 14 14 14 14 15 15 14 14 14 14 14 15 15 15 13 13 13 14 15 14 14 14 14 14 14 14 15 16 15 15 14 13 13 13 13 14 14 15 16 16 15
15 15 15 15 15 15 15 15 15 15 15 15 15 15 15 15 13 13 13 14 15 15 14 14 15 14 14 13 14 15 16 15 15 15 15 14 13 12 12 13 14 15 15
15 16 16 15 16 16 16 15 16 16 16 16 16 16 16 15 15 13 12 13 14 15 15 14 14 13 13 13 13 13 14 14 14 14 15 14 14 14 13 13 12 13 14
16 17 17 16 16 16 16 17 16 16 17 17 17 17 17 16 15 13 12 12 13 14 14 14 14 13 13 12 12 12 12 12 12 13 13 14 14 14 13 13 13 12 12
17 17 17 17 17 16 17 17 18 17 17 18 18 17 17 17 16 14 13 12 12 13 12 13 13 12 12 13 13 13 13 13 13 13 13 13 12 12 13 13 13 13 13
17 18 18 18 18 17 17 17 17 17 17 17 17 16 16 15 15 14 13 12 12 12 12 13 13 14 14 15 16 16 15 15 15 14 14 13 13 13 14 13 13 13 14
18 18 17 17 17 18 18 17 17 17 16 16 16 15 16 16 15 13 14 14 13 14 15 15 15 15 16 16 16 17 16 16 15 15 15 14 14 13 14 13 14 14 15
17 17 17 17 17 17 17 18 16 16 15 15 15 15 15 15 14 13 13 13 13 14 15 16 16 16 16 16 16 16 16 17 16 15 15 15 15 14 14 14 15 15 15
17 17 17 18 17 18 18 18 18 17 15 14 14 14 14 14 14 13 13 12 12 13 14 15 15 15 15 15 15 16 16 16 18 17 16 16 15 15 16 15 16 15 15
18 19 17 17 17 18 18 18 18 18 18 18 17 16 14 14 13 13 12 12 13 12 12 13 14 14 14 14 15 15 16 16 17 17 17 17 17 17 17 17 17 17 17
18 17 17 17 18 18 18 18 18 18 18 18 18 18 18 17 15 14 13 13 13 13 13 14 14 13 14 14 15 15 16 16 16 17 18 18 18 18 18 18 18 19 19
18 20 19 17 18 18 18 18 18 18 18 18 18 17 18 20 18 17 16 16 15 15 14 15 14 15 15 16 16 17 17 18 19 19 19 19 19 20 20 20 19 19 19
17 16 18 17 18 18 18 18 18 18 18 18 18 17 18 18 17 17 17 18 17 17 17 17 17 17 17 18 18 18 19 18 19 19 19 19 20 21 20 20 19 19 20
19 18 18 18 17 18 18 18 18 18 18 18 18 18 16 16 16 17 17 17 17 17 17 17 17 17 18 18 18 18 19 19 19 20 20 21 21 21 21 21 21 20 20
19 19 19 19 19 21 20 19 19 19 18 18 18 19 19 19 18 18 18 18 19 19 19 20 19 19 19 20 19 18 19 19 19 19 20 20 21 21 21 21 21 22 21
20 19 19 19 20 20 20 20 19 22 20 20 19 19 20 20 20 20 20 19 19 19 20 21 21 21 20 20 20 19 19 19 19 20 21 20 21 21 21 21 21 21 22
21 21 21 21 21 20 20 21 20 20 20 20 20 20 20 20 20 20 20 20 21 21 20 21 21 21 22 22 21 21 21 21 21 21 20 21 21 21 22 22 21 21 22
22 22 22 22 23 22 22 22 21 21 21 21 20 20 20 20 20 19 20 21 21 22 21 21 21 22 22 21 21 21 23 22 22 23 20 20 21 21 21 22 23 22 22